Time,TemperatureF,DewpointF,PressureIn,WindDirection,WindDirectionDegrees,WindSpeedMPH,WindSpeedGustMPH,Humidity,HourlyPrecipIn,Conditions,Clouds,dailyrainin,SoftwareType,DateUTC
2013-06-27 00:10:00,70.2,67.8,29.65,South,180,0.0,-999.0,92,-99.99,,,0.00,Acu-Link.com,2013-06-27 04:10:00,
2013-06-27 00:25:00,69.8,67.7,29.65,NNE,22,0.0,-999.0,93,-99.99,,,0.00,Acu-Link.com,2013-06-27 04:25:00,
2013-06-27 00:40:00,69.6,67.5,29.66,West,270,0.0,-999.0,93,-99.99,,,0.00,Acu-Link.com,2013-06-27 04:40:00,
2013-06-27 00:55:00,69.4,67.6,29.65,SSE,157,0.0,-999.0,94,-99.99,,,0.00,Acu-Link.com,2013-06-27 04:55:00,
2013-06-27 01:10:00,69.3,67.8,29.65,SSW,202,0.0,-999.0,95,-99.99,,,0.00,Acu-Link.com,2013-06-27 05:10:00,
2013-06-27 01:25:00,68.9,67.4,29.65,South,180,0.0,-999.0,95,-99.99,,,0.00,Acu-Link.com,2013-06-27 05:25:00,
2013-06-27 01:40:00,69.3,67.5,29.64,SSW,202,0.0,-999.0,94,-99.99,,,0.00,Acu-Link.com,2013-06-27 05:40:00,
2013-06-27 01:55:00,69.3,67.5,29.63,South,180,0.0,-999.0,94,-99.99,,,0.00,Acu-Link.com,2013-06-27 05:55:00,
2013-06-27 02:10:00,69.3,67.8,29.63,SE,135,0.0,-999.0,95,-99.99,,,0.00,Acu-Link.com,2013-06-27 06:10:00,
2013-06-27 02:26:00,69.6,68.1,29.63,SE,135,0.0,-999.0,95,-99.99,,,0.00,Acu-Link.com,2013-06-27 06:26:00,
2013-06-27 02:41:00,69.6,68.1,29.63,SSE,157,0.0,-999.0,95,-99.99,,,0.00,Acu-Link.com,2013-06-27 06:41:00,
2013-06-27 02:56:00,69.6,68.1,29.63,SE,135,0.0,-999.0,95,-99.99,,,0.00,Acu-Link.com,2013-06-27 06:56:00,
2013-06-27 03:11:00,69.6,68.4,29.62,NE,45,0.0,-999.0,96,-99.99,,,0.00,Acu-Link.com,2013-06-27 07:11:00,
2013-06-27 03:26:00,69.6,68.7,29.62,NNE,22,0.0,-999.0,97,-99.99,,,0.00,Acu-Link.com,2013-06-27 07:26:00,
2013-06-27 03:41:00,69.6,68.7,29.63,South,180,0.0,-999.0,97,-99.99,,,0.00,Acu-Link.com,2013-06-27 07:41:00,
2013-06-27 03:56:00,69.6,68.7,29.63,NNE,22,0.0,-999.0,97,-99.99,,,0.00,Acu-Link.com,2013-06-27 07:56:00,
2013-06-27 04:12:00,69.4,68.5,29.63,NW,315,0.0,-999.0,97,-99.99,,,0.00,Acu-Link.com,2013-06-27 08:12:00,
2013-06-27 04:27:00,69.3,68.4,29.63,WNW,292,0.0,-999.0,97,-99.99,,,0.00,Acu-Link.com,2013-06-27 08:27:00,
2013-06-27 04:42:00,68.9,68.0,29.64,WNW,292,0.0,-999.0,97,-99.99,,,0.00,Acu-Link.com,2013-06-27 08:42:00,
2013-06-27 04:57:00,68.4,67.5,29.64,West,270,0.0,-999.0,97,-99.99,,,0.00,Acu-Link.com,2013-06-27 08:57:00,
2013-06-27 05:12:00,68.2,67.6,29.64,West,270,0.0,-999.0,98,-99.99,,,0.00,Acu-Link.com,2013-06-27 09:12:00,
2013-06-27 05:27:00,67.8,67.2,29.64,West,270,0.0,-999.0,98,-99.99,,,0.00,Acu-Link.com,2013-06-27 09:27:00,
2013-06-27 05:43:00,67.6,67.3,29.63,West,270,0.0,-999.0,99,-99.99,,,0.00,Acu-Link.com,2013-06-27 09:43:00,
2013-06-27 05:58:00,67.5,67.2,29.64,West,270,0.0,-999.0,99,-99.99,,,0.00,Acu-Link.com,2013-06-27 09:58:00,
2013-06-27 06:13:00,67.3,67.0,29.64,South,180,0.0,-999.0,99,-99.99,,,0.00,Acu-Link.com,2013-06-27 10:13:00,
2013-06-27 06:28:00,67.6,67.3,29.64,NNE,22,0.0,-999.0,99,-99.99,,,0.00,Acu-Link.com,2013-06-27 10:28:00,
2013-06-27 06:43:00,68.0,67.7,29.65,SSE,157,0.0,-999.0,99,-99.99,,,0.00,Acu-Link.com,2013-06-27 10:43:00,
2013-06-27 06:58:00,68.7,68.4,29.65,SSE,157,0.0,-999.0,99,-99.99,,,0.00,Acu-Link.com,2013-06-27 10:58:00,
2013-06-27 07:13:00,69.4,68.8,29.65,NNE,22,0.0,-999.0,98,-99.99,,,0.00,Acu-Link.com,2013-06-27 11:13:00,
2013-06-27 07:28:00,70.5,69.3,29.64,South,180,0.0,-999.0,96,-99.99,,,0.00,Acu-Link.com,2013-06-27 11:28:00,
2013-06-27 07:43:00,71.1,69.6,29.64,South,180,0.0,-999.0,95,-99.99,,,0.00,Acu-Link.com,2013-06-27 11:43:00,
2013-06-27 07:59:00,71.1,69.3,29.64,South,180,0.0,-999.0,94,-99.99,,,0.00,Acu-Link.com,2013-06-27 11:59:00,
2013-06-27 08:14:00,71.4,69.3,29.64,South,180,0.0,-999.0,93,-99.99,,,0.00,Acu-Link.com,2013-06-27 12:14:00,
2013-06-27 08:29:00,72.3,69.8,29.64,South,180,0.0,-999.0,92,-99.99,,,0.00,Acu-Link.com,2013-06-27 12:29:00,
2013-06-27 08:44:00,74.5,70.4,29.64,West,270,0.0,-999.0,87,-99.99,,,0.00,Acu-Link.com,2013-06-27 12:44:00,
2013-06-27 08:59:00,77.2,71.3,29.64,WSW,247,0.0,-999.0,82,-99.99,,,0.00,Acu-Link.com,2013-06-27 12:59:00,
2013-06-27 09:14:00,77.9,70.8,29.63,South,180,0.0,-999.0,79,-99.99,,,0.00,Acu-Link.com,2013-06-27 13:14:00,
2013-06-27 09:29:00,78.4,71.3,29.63,South,180,0.0,-999.0,79,-99.99,,,0.00,Acu-Link.com,2013-06-27 13:29:00,
2013-06-27 09:44:00,79.9,70.9,29.62,SE,135,0.0,-999.0,74,-99.99,,,0.00,Acu-Link.com,2013-06-27 13:44:00,
2013-06-27 09:59:00,81.0,71.1,29.62,NNE,22,0.0,-999.0,72,-99.99,,,0.00,Acu-Link.com,2013-06-27 13:59:00,
2013-06-27 10:15:00,79.2,71.3,29.62,NNE,22,2.2,-999.0,77,-99.99,,,0.00,Acu-Link.com,2013-06-27 14:15:00,
2013-06-27 10:30:00,79.2,71.0,29.61,NNE,22,0.0,-999.0,76,-99.99,,,0.00,Acu-Link.com,2013-06-27 14:30:00,
2013-06-27 10:45:00,80.4,71.3,29.61,East,90,2.2,-999.0,74,-99.99,,,0.00,Acu-Link.com,2013-06-27 14:45:00,
2013-06-27 11:00:00,82.4,72.9,29.61,South,180,0.0,-999.0,73,-99.99,,,0.00,Acu-Link.com,2013-06-27 15:00:00,
2013-06-27 11:15:00,80.6,71.1,29.61,NNE,22,0.0,-999.0,73,-99.99,,,0.00,Acu-Link.com,2013-06-27 15:15:00,
2013-06-27 11:30:00,81.3,72.2,29.61,South,180,0.0,-999.0,74,-99.99,,,0.00,Acu-Link.com,2013-06-27 15:30:00,
2013-06-27 11:45:00,81.1,71.6,29.61,SSE,157,0.0,-999.0,73,-99.99,,,0.00,Acu-Link.com,2013-06-27 15:45:00,
2013-06-27 12:00:00,81.9,72.0,29.61,South,180,0.0,-999.0,72,-99.99,,,0.00,Acu-Link.com,2013-06-27 16:00:00,
2013-06-27 12:15:00,84.0,73.6,29.61,ENE,67,0.0,-999.0,71,-99.99,,,0.00,Acu-Link.com,2013-06-27 16:15:00,
2013-06-27 12:31:00,82.0,73.3,29.60,South,180,0.0,-999.0,75,-99.99,,,0.00,Acu-Link.com,2013-06-27 16:31:00,
2013-06-27 12:46:00,85.5,73.3,29.59,ESE,112,0.0,-999.0,67,-99.99,,,0.00,Acu-Link.com,2013-06-27 16:46:00,
2013-06-27 13:01:00,81.5,72.8,29.59,SE,135,0.0,-999.0,75,-99.99,,,0.00,Acu-Link.com,2013-06-27 17:01:00,
2013-06-27 13:16:00,83.1,73.9,29.58,South,180,0.0,-999.0,74,-99.99,,,0.00,Acu-Link.com,2013-06-27 17:16:00,
2013-06-27 13:31:00,81.9,72.8,29.57,South,180,0.0,-999.0,74,-99.99,,,0.00,Acu-Link.com,2013-06-27 17:31:00,
2013-06-27 13:46:00,82.4,74.1,29.56,ESE,112,0.0,-999.0,76,-99.99,,,0.00,Acu-Link.com,2013-06-27 17:46:00,
2013-06-27 14:01:00,82.8,72.4,29.56,West,270,0.0,-999.0,71,-99.99,,,0.00,Acu-Link.com,2013-06-27 18:01:00,
2013-06-27 14:16:00,85.5,73.7,29.56,East,90,0.0,-999.0,68,-99.99,,,0.00,Acu-Link.com,2013-06-27 18:16:00,
2013-06-27 14:31:00,83.8,74.2,29.55,NNE,22,0.0,-999.0,73,-99.99,,,0.00,Acu-Link.com,2013-06-27 18:31:00,
2013-06-27 14:47:00,80.4,72.9,29.55,SSE,157,0.0,-999.0,78,-99.99,,,0.00,Acu-Link.com,2013-06-27 18:47:00,
2013-06-27 15:02:00,77.5,70.5,29.55,SSE,157,0.0,-999.0,79,-99.99,,,0.00,Acu-Link.com,2013-06-27 19:02:00,
2013-06-27 15:17:00,75.7,68.3,29.57,NE,45,0.0,-999.0,78,-99.99,,,0.00,Acu-Link.com,2013-06-27 19:17:00,
2013-06-27 15:32:00,72.9,66.0,29.58,East,90,4.7,-999.0,79,-99.99,,,0.00,Acu-Link.com,2013-06-27 19:32:00,
2013-06-27 15:47:00,71.6,66.2,29.59,NNE,22,2.2,-999.0,83,-99.99,,,0.00,Acu-Link.com,2013-06-27 19:47:00,
2013-06-27 16:02:00,68.5,65.4,29.62,East,90,2.7,-999.0,90,-99.99,,,0.01,Acu-Link.com,2013-06-27 20:02:00,
2013-06-27 16:17:00,67.6,65.5,29.61,NNE,22,2.7,-999.0,93,-99.99,,,0.24,Acu-Link.com,2013-06-27 20:17:00,
2013-06-27 17:03:00,67.6,65.5,29.63,ESE,112,0.0,-999.0,93,-99.99,,,0.33,Acu-Link.com,2013-06-27 21:03:00,
2013-06-27 17:18:00,67.3,65.5,29.61,ESE,112,0.0,-999.0,94,-99.99,,,0.40,Acu-Link.com,2013-06-27 21:18:00,
2013-06-27 17:33:00,67.3,65.8,29.61,East,90,0.0,-999.0,95,-99.99,,,0.42,Acu-Link.com,2013-06-27 21:33:00,
2013-06-27 17:48:00,67.5,65.7,29.60,SE,135,0.0,-999.0,94,-99.99,,,0.42,Acu-Link.com,2013-06-27 21:48:00,
2013-06-27 18:04:00,67.5,65.7,29.59,ESE,112,0.0,-999.0,94,-99.99,,,0.42,Acu-Link.com,2013-06-27 22:04:00,
2013-06-27 18:19:00,68.2,66.1,29.58,South,180,0.0,-999.0,93,-99.99,,,0.42,Acu-Link.com,2013-06-27 22:19:00,
2013-06-27 18:34:00,69.4,67.0,29.60,ESE,112,0.0,-999.0,92,-99.99,,,0.42,Acu-Link.com,2013-06-27 22:34:00,
2013-06-27 18:50:00,69.4,67.0,29.60,SSE,157,0.0,-999.0,92,-99.99,,,0.42,Acu-Link.com,2013-06-27 22:50:00,
2013-06-27 19:05:00,69.1,67.0,29.60,SSE,157,0.0,-999.0,93,-99.99,,,0.42,Acu-Link.com,2013-06-27 23:05:00,
2013-06-27 19:20:00,69.1,66.7,29.59,South,180,0.0,-999.0,92,-99.99,,,0.43,Acu-Link.com,2013-06-27 23:20:00,
2013-06-27 20:05:00,68.4,66.6,29.61,SSW,202,0.0,-999.0,94,-99.99,,,0.44,Acu-Link.com,2013-06-28 00:05:00,
2013-06-27 20:20:00,67.8,66.3,29.61,South,180,0.0,-999.0,95,-99.99,,,0.44,Acu-Link.com,2013-06-28 00:20:00,
2013-06-27 20:35:00,67.3,66.1,29.61,West,270,0.0,-999.0,96,-99.99,,,0.48,Acu-Link.com,2013-06-28 00:35:00,
2013-06-27 20:50:00,67.8,66.3,29.59,WSW,247,0.0,-999.0,95,-99.99,,,0.52,Acu-Link.com,2013-06-28 00:50:00,
2013-06-27 21:05:00,67.3,65.8,29.58,SSW,202,0.0,-999.0,95,-99.99,,,0.53,Acu-Link.com,2013-06-28 01:05:00,
2013-06-27 21:21:00,67.3,65.8,29.58,NW,315,2.2,-999.0,95,-99.99,,,0.53,Acu-Link.com,2013-06-28 01:21:00,
2013-06-27 21:36:00,67.5,65.7,29.57,South,180,0.0,-999.0,94,-99.99,,,0.56,Acu-Link.com,2013-06-28 01:36:00,
2013-06-27 21:51:00,66.9,65.4,29.56,SSW,202,0.0,-999.0,95,-99.99,,,0.56,Acu-Link.com,2013-06-28 01:51:00,
2013-06-27 22:06:00,66.6,64.8,29.56,NNW,337,0.0,-999.0,94,-99.99,,,0.56,Acu-Link.com,2013-06-28 02:06:00,
2013-06-27 22:21:00,66.4,64.9,29.56,SW,225,0.0,-999.0,95,-99.99,,,0.56,Acu-Link.com,2013-06-28 02:21:00,
2013-06-27 22:51:00,65.7,64.5,29.55,WNW,292,2.2,-999.0,96,-99.99,,,0.56,Acu-Link.com,2013-06-28 02:51:00,
2013-06-27 23:06:00,65.8,64.3,29.55,SSW,202,0.0,-999.0,95,-99.99,,,0.56,Acu-Link.com,2013-06-28 03:06:00,
2013-06-27 23:21:00,65.5,64.3,29.55,NNE,22,2.2,-999.0,96,-99.99,,,0.56,Acu-Link.com,2013-06-28 03:21:00,